Theta_e
311 311 311 311 311 311 311 311 311 311 312 312 312 312 313 317 320 323 328 323 322 321 320 322 323 327 328 328 330 331 335 335 336 337 338 336 338 336 335 334 336 337 339 338 338
311 311 311 311 311 311 311 311 311 312 312 312 312 312 315 318 321 326 325 323 319 318 320 323 326 328 329 330 331 332 333 332 334 337 337 336 337 336 334 334 332 336 339 340 340
311 311 311 310 310 311 311 312 312 312 312 312 312 313 316 319 323 327 325 320 317 318 323 325 326 328 330 331 330 331 331 333 332 335 336 335 335 336 337 337 333 335 339 340 343
311 311 311 310 310 310 311 312 312 312 312 312 312 315 318 320 329 326 320 318 317 319 324 326 327 329 331 332 330 330 331 331 332 337 337 337 336 336 337 339 338 337 340 344 341
311 311 311 310 310 310 311 312 312 312 312 312 312 316 319 327 326 324 318 318 318 319 323 327 329 331 332 331 331 332 335 333 335 335 332 332 335 338 338 339 339 340 343 343 344
312 312 312 311 311 310 310 311 312 312 312 312 313 316 319 325 324 323 320 318 321 321 325 327 329 330 331 331 332 334 334 334 336 336 336 337 340 339 339 340 343 344 346 347 344
313 313 313 312 311 311 311 311 312 312 312 312 314 315 321 324 322 322 319 322 324 324 327 328 329 329 331 332 333 333 334 334 335 337 335 334 339 341 341 341 344 343 343 344 345
313 313 313 312 311 311 311 311 312 312 312 312 314 316 327 323 323 323 320 322 324 325 326 326 327 328 329 332 333 334 334 336 336 336 334 335 342 340 340 341 340 341 344 345 346
312 313 312 312 311 311 311 312 312 312 312 313 321 325 326 321 323 323 324 324 324 325 326 327 327 329 331 334 333 334 337 337 336 338 337 339 342 337 340 341 342 344 345 347 347
312 313 312 311 311 311 311 312 313 313 314 314 318 324 325 324 325 325 326 327 326 328 329 329 329 331 333 334 335 335 335 336 333 338 338 339 339 338 339 340 342 344 343 344 344
312 312 312 311 311 311 312 316 322 322 315 324 324 326 325 326 325 327 328 328 328 330 331 330 331 333 333 334 332 333 335 335 334 332 337 338 338 338 337 340 342 340 341 341 341
313 313 312 311 311 311 312 320 320 320 321 322 323 324 325 325 326 327 328 329 330 331 331 333 332 333 331 330 333 333 334 334 333 333 337 338 338 335 333 334 339 341 342 342 341
313 313 312 311 311 311 313 319 319 320 323 325 323 324 325 326 327 328 328 330 331 332 332 332 333 331 331 333 332 332 334 333 332 337 337 337 339 337 336 338 335 339 339 338 337
314 313 313 311 315 318 318 320 320 320 326 326 323 324 325 327 328 328 328 330 331 332 332 332 333 331 331 333 330 332 332 332 338 337 342 336 343 335 335 331 331 338 335 334 334
314 314 313 311 320 318 321 320 320 322 334 326 324 324 326 327 329 328 329 329 331 332 331 332 331 332 334 333 331 330 333 336 337 339 339 338 337 341 337 337 337 336 335 333 332
314 314 313 313 312 317 319 320 322 327 334 326 325 326 326 328 329 328 328 328 330 332 331 331 332 333 334 331 333 334 336 336 337 337 345 340 339 345 340 333 336 336 334 333 331
314 314 313 314 320 317 320 323 326 330 330 327 327 326 326 327 329 330 329 330 331 331 331 332 332 332 330 330 333 332 333 335 340 342 343 338 342 343 338 336 338 336 334 332 329
314 314 314 312 317 317 321 326 330 327 330 328 327 325 325 326 328 330 329 330 331 331 334 333 335 333 333 331 330 330 334 338 340 332 336 338 342 344 337 335 335 335 333 331 329
314 318 314 317 314 318 323 328 333 330 329 327 327 326 326 326 327 328 330 330 330 331 335 336 336 334 332 330 331 333 333 332 334 337 339 342 340 338 336 336 335 334 333 331 329
314 322 320 319 317 318 325 328 330 331 330 328 327 327 327 327 326 327 329 330 330 331 334 338 338 334 333 331 334 335 335 334 333 334 336 342 343 342 339 337 336 335 333 332 330
314 323 322 319 318 320 326 330 329 329 329 329 328 326 328 327 327 328 329 330 330 330 333 334 334 335 334 336 331 330 333 333 333 336 337 337 338 339 340 339 336 334 332 332 329
323 324 322 318 318 321 325 327 327 329 328 329 329 331 328 328 328 329 329 330 329 329 332 334 336 334 338 336 334 331 330 334 334 336 336 336 344 337 337 336 335 333 332 331 329
322 322 321 317 320 322 323 326 327 328 330 329 329 331 329 328 328 332 337 334 330 330 337 337 333 334 337 337 337 333 332 332 334 340 342 339 340 336 335 335 334 333 332 331 330
323 325 322 319 322 327 328 327 328 327 328 330 328 330 330 330 332 332 335 333 333 331 334 342 338 336 338 336 330 331 333 333 334 336 334 337 339 339 337 336 334 333 331 331 329
323 325 323 321 321 327 330 327 328 328 328 330 331 329 331 332 332 330 332 335 334 334 335 340 334 334 333 331 330 330 331 332 332 331 333 334 339 339 338 337 335 334 332 331 328
327 330 328 323 321 327 327 328 327 328 331 331 333 332 331 332 333 330 333 335 337 335 337 342 341 336 334 333 332 331 331 332 332 333 333 338 339 336 334 336 335 333 331 330 327
325 328 328 326 326 326 328 328 328 330 331 332 331 335 330 329 329 329 334 330 335 340 344 346 341 336 335 338 336 332 335 333 331 332 335 336 335 334 333 334 333 332 330 330 327
Wind_Speed
7 8 9 10 10 10 11 12 12 13 16 17 16 16 15 14 5 5 3 3 9 13 10 6 11 13 17 21 15 7 10 6 9 12 3 5 28 30 27 26 18 17 17 17 17
7 8 9 10 11 10 11 12 12 13 15 16 16 14 13 13 7 9 11 11 14 12 7 5 10 11 18 18 4 6 3 7 12 16 10 35 19 11 9 14 3 5 16 17 15
8 9 10 11 11 11 11 12 12 12 15 15 15 12 12 14 12 3 6 9 6 7 7 8 15 17 20 11 7 5 8 10 12 24 34 20 31 16 26 12 19 20 19 16 17
8 9 10 11 12 12 11 12 12 12 13 14 13 10 10 9 3 1 7 5 5 11 7 10 11 18 20 5 5 12 8 8 16 30 37 31 24 21 6 26 25 19 14 26 17
7 9 11 12 12 12 11 11 11 12 12 13 11 10 7 7 5 7 5 5 6 9 9 13 16 17 13 3 2 7 26 4 24 31 36 26 10 29 13 30 20 18 24 22 18
8 10 12 13 12 12 11 10 10 11 10 11 9 9 7 11 4 6 2 6 7 9 9 13 16 13 13 7 9 16 19 21 24 24 24 18 10 15 17 19 26 20 18 20 21
8 10 13 14 13 11 11 9 9 9 9 10 8 12 6 10 4 3 6 8 8 10 11 9 9 13 17 13 26 19 18 19 16 26 15 18 10 13 18 18 21 17 17 18 18
9 11 13 14 13 11 10 8 8 8 7 8 6 7 7 3 5 6 7 9 9 11 12 10 11 14 15 13 15 10 8 6 9 15 3 1 5 3 18 22 20 11 17 16 17
10 12 12 13 13 11 9 7 7 7 6 6 3 4 6 4 5 9 10 10 9 12 12 11 12 13 14 14 1 8 9 16 5 12 13 11 12 15 23 19 17 17 13 18 20
10 12 13 12 12 9 7 6 5 5 6 6 6 6 9 10 5 8 10 10 10 9 12 13 15 11 3 8 9 13 9 23 7 15 11 13 13 9 15 18 25 30 13 21 16
9 11 12 11 10 8 5 6 6 1 9 12 8 8 9 4 5 9 11 8 11 11 14 18 9 11 24 13 14 13 11 12 17 3 9 13 11 14 23 8 25 18 14 12 14
10 11 11 10 9 6 3 1 6 5 10 20 12 8 3 8 12 13 13 11 13 14 19 15 3 9 8 6 13 11 12 4 11 3 8 4 26 17 32 38 19 20 26 19 14
10 11 10 8 7 5 4 8 6 7 7 16 13 11 11 11 14 17 17 19 14 17 20 6 4 4 7 8 3 6 10 4 10 14 21 22 24 13 13 23 42 8 17 20 16
11 10 8 5 3 4 7 4 5 6 5 13 10 7 18 15 9 17 19 22 14 19 10 1 7 5 3 8 12 3 11 13 22 10 5 7 4 8 9 10 43 12 15 16 15
11 9 7 6 3 2 2 4 6 1 5 18 15 9 13 16 7 20 18 13 18 13 5 6 0 6 10 3 9 13 11 18 22 15 8 11 10 10 18 12 12 14 13 12 10
11 8 6 5 5 6 6 7 3 5 5 12 12 13 17 20 16 15 12 17 19 15 9 12 7 9 6 5 10 12 9 3 5 5 2 18 9 4 7 10 10 13 11 9 11
12 8 6 8 1 2 5 5 5 7 9 12 16 16 16 16 17 15 15 14 10 8 12 5 5 6 3 8 5 9 14 4 2 5 3 7 6 6 14 17 11 15 12 10 14
13 8 8 10 7 6 5 6 8 11 7 11 12 19 15 15 16 9 11 13 15 15 10 3 5 2 3 5 7 13 7 6 12 12 4 17 7 6 13 15 14 15 12 12 11
13 6 8 6 11 5 8 9 6 7 6 3 10 15 13 16 8 11 14 15 13 14 4 5 8 3 4 7 7 8 10 9 7 16 5 7 4 5 3 11 14 13 12 11 8
12 8 10 8 8 6 7 14 12 5 6 8 7 9 11 14 11 11 14 12 9 11 8 14 8 5 5 5 4 7 5 7 6 6 11 8 7 5 10 9 10 9 11 9 4
11 7 9 5 7 9 9 14 8 7 2 3 9 8 9 8 13 13 8 9 3 1 7 5 4 4 6 3 9 7 4 6 6 5 6 7 8 11 10 12 6 13 8 8 9
8 8 6 10 10 13 12 16 4 3 7 6 7 11 6 6 10 11 12 9 11 7 7 3 2 4 17 20 13 4 6 7 5 11 9 7 1 10 10 12 8 10 10 11 5
10 12 6 12 7 10 19 22 6 6 7 8 6 8 4 3 3 11 9 7 9 6 2 3 2 7 4 8 13 4 7 1 3 6 2 8 4 10 13 11 8 11 8 7 4
8 4 7 14 22 12 13 16 5 11 8 4 9 6 0 6 6 4 12 5 5 3 3 5 4 3 8 10 6 3 5 3 2 4 10 9 6 6 9 10 11 11 2 8 7
8 8 6 8 14 16 15 13 11 9 10 10 9 13 8 5 7 5 5 10 5 3 3 2 4 11 6 5 5 8 5 5 8 8 5 9 14 5 4 2 8 10 2 1 9
9 9 10 11 15 14 10 12 16 12 9 10 10 12 14 9 9 8 8 7 7 7 6 2 5 7 11 9 4 8 6 4 5 1 4 12 10 4 8 16 11 2 1 7 10
11 9 9 8 10 11 11 12 11 8 5 8 13 10 15 15 14 15 19 15 8 9 8 7 6 2 10 11 5 8 7 7 5 2 4 5 3 6 1 5 3 5 4 8 7
Wind_Direction
309 310 310 306 307 310 313 313 321 327 324 327 329 329 329 330 302 288 297 227 237 264 251 246 269 274 274 265 268 292 101 194 152 117 86 332 84 70 93 341 14 1 103 121 130
317 318 319 313 309 306 307 310 318 325 323 326 327 329 330 324 281 278 235 277 263 252 207 248 258 263 266 267 198 241 268 102 79 131 126 54 69 72 115 174 281 7 107 120 111
320 324 323 317 314 307 303 306 315 321 323 326 326 327 324 322 312 156 243 277 246 192 183 270 268 279 267 271 38 321 37 34 62 87 84 130 77 233 132 154 189 196 131 134 118
324 327 326 320 315 307 303 304 312 317 323 324 324 325 324 314 353 114 297 255 206 186 212 279 257 260 262 272 43 285 77 342 60 89 79 51 3 261 132 168 158 179 119 73 81
331 330 326 320 315 312 305 302 309 314 321 320 323 327 338 294 284 322 273 213 192 195 237 258 254 269 300 58 295 341 16 353 90 84 103 120 214 230 59 113 149 97 97 100 94
330 328 325 322 318 315 306 302 307 309 320 316 323 322 323 274 335 323 123 183 180 202 243 268 288 341 297 350 21 52 89 342 89 93 78 69 27 55 78 96 90 86 84 82 70
327 329 325 322 320 318 309 303 304 305 318 308 322 322 289 251 286 307 195 193 200 215 251 258 311 309 308 339 42 31 42 353 10 115 152 246 62 73 76 93 86 83 85 82 75
328 327 324 323 321 320 311 306 305 305 307 297 320 313 268 268 230 230 194 200 217 230 253 292 312 295 294 2 42 56 72 163 266 117 145 74 125 313 112 109 101 100 88 83 69
326 325 324 321 320 322 313 313 305 301 292 281 356 351 288 274 211 200 196 203 213 239 258 278 296 280 285 69 336 221 126 267 217 125 147 129 119 256 120 116 124 110 115 98 78
323 322 321 322 320 320 317 312 302 290 270 258 239 275 244 213 162 178 181 221 203 235 254 245 246 241 68 248 247 218 146 210 102 172 94 109 117 115 130 141 118 91 71 74 69
318 319 322 324 318 319 312 320 309 276 237 230 256 253 155 147 194 187 182 192 211 227 238 215 236 266 191 222 256 51 64 41 342 68 132 115 99 66 46 212 105 108 110 108 95
319 320 327 321 315 313 306 300 359 324 297 245 248 266 241 216 180 193 180 198 218 234 227 251 268 316 24 325 20 12 89 132 244 315 103 118 43 25 359 337 77 114 126 117 104
322 322 327 320 322 302 246 279 314 330 269 219 212 232 199 186 201 183 188 211 204 237 252 242 249 26 296 43 55 355 323 339 299 99 60 51 9 71 279 334 334 26 74 87 78
324 323 323 319 358 343 269 284 314 315 275 155 190 229 186 197 223 187 201 211 227 243 257 32 229 285 309 352 13 350 17 343 30 64 54 16 239 217 91 95 261 95 76 92 100
330 323 315 274 262 266 319 322 303 82 266 146 170 205 191 200 177 190 202 252 267 259 321 355 214 44 56 244 343 357 4 65 88 92 123 238 241 140 175 191 278 113 114 104 103
338 323 308 306 261 230 314 307 338 236 220 162 145 179 190 209 207 188 223 240 280 300 170 257 58 95 162 320 29 341 76 280 52 176 158 246 206 323 198 176 231 124 103 91 92
339 316 279 244 74 272 280 277 224 250 132 152 161 177 206 197 232 170 203 226 250 243 221 173 205 80 294 324 28 320 307 311 226 224 280 282 170 150 198 192 176 116 109 78 59
336 310 278 243 237 285 284 242 253 244 182 139 168 171 197 200 221 181 204 226 227 248 300 151 23 345 99 16 347 298 336 356 335 320 67 42 35 353 79 92 98 91 97 71 51
335 308 285 253 233 244 254 224 228 319 61 206 198 183 191 188 223 190 220 226 205 240 203 18 214 157 24 334 358 342 335 338 292 298 107 130 324 121 295 133 119 107 98 70 44
325 275 264 197 199 207 242 253 288 60 16 314 224 204 190 176 209 204 214 229 223 237 16 155 199 217 125 283 167 282 338 341 337 328 342 176 137 189 205 151 115 142 120 90 36
304 238 162 198 181 214 230 235 234 117 164 260 253 224 201 174 211 206 210 202 16 101 257 322 2 127 254 9 347 322 335 8 324 328 324 347 74 107 157 141 132 102 93 103 70
284 261 167 177 198 222 234 238 302 73 164 246 298 286 231 206 214 247 237 192 155 282 235 19 4 327 44 358 347 357 13 30 359 348 1 346 317 11 107 113 108 98 92 68 66
262 226 172 185 214 213 238 263 168 238 230 194 233 281 184 281 218 270 97 42 114 215 25 31 231 264 13 0 283 291 70 232 55 287 346 298 35 243 96 101 113 111 84 132 93
272 208 153 206 238 303 257 242 207 220 289 292 218 262 239 261 228 293 117 104 147 157 34 326 300 291 170 245 357 252 175 204 185 280 344 34 146 136 149 165 138 117 104 111 71
245 252 169 193 220 242 255 229 226 209 202 212 226 221 213 239 227 247 114 126 159 109 198 274 261 268 283 3 311 312 314 34 2 350 343 4 66 76 153 172 112 106 148 320 82
290 350 339 247 213 227 235 241 221 225 182 194 241 201 226 221 246 240 172 164 174 179 207 205 267 292 316 271 251 294 289 161 266 12 321 47 25 359 51 101 97 153 203 82 68
345 305 275 261 204 225 230 242 235 242 155 294 206 264 201 218 232 259 292 172 184 167 213 182 253 293 274 347 301 287 356 130 103 227 62 3 60 48 23 136 144 200 188 91 72